QPF
0.00 0.00 0.00 0.00 0.00 0.00 0.00 0.00 0.00 0.00 0.00 0.00 0.00 0.00 0.00 0.00 0.00 0.00 0.00 0.00 0.00 0.00 0.01 0.03 0.01 0.01 0.02 0.02 0.04 0.03 0.03 0.03 0.04 0.02 0.02 0.00 0.00 0.00 0.00 0.00 0.00 0.00 0.00 0.00
0.00 0.00 0.00 0.00 0.00 0.00 0.00 0.00 0.00 0.00 0.00 0.00 0.00 0.00 0.00 0.00 0.00 0.00 0.00 0.00 0.00 0.00 0.00 0.02 0.02 0.01 0.01 0.01 0.01 0.03 0.02 0.01 0.01 0.01 0.03 0.06 0.01 0.00 0.00 0.00 0.00 0.00 0.00 0.00
0.00 0.00 0.00 0.00 0.00 0.00 0.00 0.00 0.00 0.00 0.00 0.00 0.00 0.00 0.00 0.00 0.00 0.00 0.00 0.00 0.00 0.00 0.00 0.00 0.00 0.00 0.00 0.00 0.00 0.01 0.01 0.01 0.01 0.01 0.05 0.03 0.01 0.00 0.00 0.00 0.00 0.00 0.00 0.00
0.00 0.00 0.00 0.00 0.00 0.00 0.00 0.00 0.00 0.00 0.00 0.00 0.00 0.00 0.00 0.00 0.00 0.00 0.00 0.00 0.00 0.00 0.00 0.00 0.00 0.00 0.00 0.00 0.00 0.01 0.01 0.00 0.01 0.02 0.04 0.01 0.00 0.00 0.00 0.00 0.00 0.00 0.00 0.00
0.00 0.00 0.00 0.00 0.00 0.00 0.01 0.00 0.00 0.00 0.00 0.00 0.00 0.00 0.00 0.00 0.00 0.00 0.00 0.00 0.00 0.00 0.00 0.00 0.00 0.00 0.00 0.00 0.00 0.00 0.00 0.00 0.00 0.00 0.02 0.03 0.04 0.03 0.01 0.01 0.00 0.00 0.00 0.00
0.00 0.00 0.00 0.00 0.00 0.00 0.00 0.00 0.00 0.00 0.01 0.01 0.00 0.00 0.00 0.01 0.00 0.00 0.00 0.00 0.00 0.00 0.00 0.00 0.00 0.00 0.00 0.00 0.00 0.00 0.00 0.00 0.00 0.00 0.00 0.02 0.04 0.02 0.01 0.00 0.00 0.00 0.00 0.00
0.00 0.00 0.00 0.00 0.00 0.00 0.00 0.00 0.00 0.01 0.01 0.00 0.00 0.00 0.00 0.00 0.00 0.00 0.00 0.00 0.00 0.00 0.00 0.00 0.00 0.00 0.00 0.00 0.00 0.00 0.00 0.00 0.00 0.00 0.00 0.01 0.03 0.03 0.02 0.01 0.01 0.01 0.00 0.00
0.00 0.00 0.00 0.00 0.00 0.00 0.00 0.00 0.00 0.00 0.01 0.00 0.00 0.00 0.00 0.00 0.00 0.00 0.00 0.00 0.00 0.00 0.00 0.00 0.00 0.00 0.00 0.00 0.00 0.00 0.00 0.00 0.00 0.00 0.00 0.00 0.01 0.02 0.04 0.03 0.01 0.01 0.01 0.00
0.00 0.00 0.00 0.00 0.00 0.00 0.00 0.00 0.00 0.00 0.00 0.00 0.01 0.01 0.00 0.00 0.00 0.00 0.00 0.00 0.00 0.00 0.00 0.00 0.00 0.00 0.00 0.00 0.00 0.00 0.00 0.00 0.00 0.00 0.00 0.00 0.00 0.01 0.02 0.02 0.01 0.00 0.00 0.00
0.00 0.00 0.00 0.00 0.00 0.00 0.00 0.00 0.00 0.00 0.00 0.00 0.00 0.01 0.01 0.00 0.00 0.00 0.00 0.00 0.00 0.00 0.00 0.00 0.00 0.00 0.00 0.01 0.01 0.01 0.00 0.00 0.00 0.00 0.00 0.00 0.00 0.00 0.01 0.01 0.01 0.00 0.00 0.00
0.00 0.00 0.00 0.00 0.00 0.00 0.00 0.00 0.00 0.00 0.00 0.00 0.00 0.00 0.01 0.00 0.00 0.00 0.00 0.00 0.00 0.00 0.00 0.00 0.00 0.00 0.00 0.02 0.05 0.02 0.01 0.00 0.00 0.00 0.00 0.00 0.00 0.00 0.00 0.01 0.01 0.01 0.00 0.00
0.00 0.00 0.00 0.00 0.00 0.00 0.00 0.00 0.00 0.00 0.00 0.00 0.00 0.00 0.00 0.00 0.01 0.02 0.01 0.00 0.00 0.00 0.00 0.00 0.00 0.00 0.00 0.01 0.02 0.06 0.06 0.00 0.00 0.00 0.00 0.00 0.00 0.00 0.00 0.00 0.00 0.00 0.01 0.00
0.00 0.00 0.00 0.00 0.00 0.00 0.00 0.00 0.00 0.00 0.00 0.00 0.00 0.00 0.00 0.01 0.01 0.05 0.05 0.00 0.00 0.00 0.00 0.00 0.00 0.00 0.00 0.02 0.04 0.06 0.07 0.01 0.02 0.01 0.01 0.01 0.00 0.00 0.00 0.00 0.00 0.00 0.00 0.00
0.00 0.00 0.00 0.00 0.00 0.00 0.00 0.00 0.00 0.00 0.00 0.00 0.00 0.00 0.00 0.00 0.02 0.05 0.03 0.00 0.00 0.00 0.00 0.00 0.00 0.01 0.08 0.08 0.05 0.05 0.09 0.05 0.01 0.01 0.03 0.02 0.01 0.00 0.00 0.00 0.00 0.00 0.00 0.00
0.00 0.00 0.00 0.00 0.00 0.00 0.00 0.00 0.00 0.00 0.00 0.00 0.00 0.00 0.00 0.01 0.01 0.03 0.01 0.01 0.00 0.00 0.00 0.00 0.00 0.00 0.01 0.09 0.14 0.09 0.04 0.01 0.01 0.01 0.02 0.02 0.03 0.01 0.00 0.00 0.00 0.00 0.00 0.00
0.00 0.00 0.00 0.00 0.00 0.00 0.00 0.00 0.00 0.00 0.00 0.00 0.00 0.00 0.00 0.00 0.00 0.00 0.00 0.00 0.00 0.00 0.00 0.00 0.00 0.00 0.01 0.02 0.05 0.11 0.10 0.04 0.00 0.00 0.01 0.03 0.04 0.01 0.00 0.00 0.00 0.00 0.00 0.00
0.00 0.00 0.00 0.00 0.00 0.00 0.00 0.00 0.00 0.00 0.00 0.00 0.00 0.00 0.00 0.00 0.00 0.00 0.00 0.00 0.00 0.00 0.00 0.00 0.00 0.00 0.00 0.01 0.00 0.01 0.07 0.08 0.04 0.02 0.01 0.01 0.02 0.01 0.00 0.00 0.00 0.00 0.00 0.00
0.00 0.00 0.00 0.00 0.00 0.00 0.00 0.00 0.00 0.00 0.00 0.00 0.00 0.00 0.00 0.00 0.00 0.00 0.00 0.00 0.00 0.00 0.00 0.00 0.00 0.00 0.00 0.00 0.00 0.02 0.03 0.03 0.03 0.02 0.00 0.01 0.00 0.00 0.00 0.00 0.00 0.00 0.00 0.00
0.00 0.00 0.00 0.00 0.00 0.00 0.00 0.00 0.00 0.00 0.00 0.00 0.00 0.00 0.00 0.00 0.00 0.00 0.00 0.00 0.00 0.00 0.00 0.00 0.00 0.00 0.00 0.00 0.00 0.01 0.03 0.02 0.00 0.01 0.01 0.00 0.00 0.00 0.00 0.00 0.00 0.00 0.00 0.00
0.00 0.00 0.00 0.00 0.00 0.00 0.00 0.00 0.00 0.00 0.00 0.00 0.00 0.00 0.00 0.00 0.00 0.00 0.00 0.00 0.00 0.00 0.00 0.00 0.00 0.00 0.00 0.00 0.00 0.00 0.01 0.01 0.01 0.01 0.01 0.00 0.00 0.00 0.00 0.00 0.00 0.00 0.00 0.00
0.00 0.00 0.00 0.00 0.00 0.00 0.00 0.00 0.00 0.00 0.00 0.00 0.00 0.00 0.00 0.00 0.00 0.00 0.00 0.00 0.00 0.00 0.00 0.00 0.00 0.00 0.00 0.00 0.00 0.00 0.00 0.00 0.01 0.02 0.01 0.00 0.00 0.00 0.01 0.00 0.00 0.00 0.00 0.00
0.00 0.00 0.00 0.00 0.00 0.00 0.00 0.00 0.00 0.00 0.00 0.00 0.00 0.00 0.00 0.00 0.00 0.00 0.00 0.00 0.00 0.00 0.00 0.00 0.00 0.00 0.00 0.01 0.00 0.02 0.01 0.00 0.00 0.00 0.00 0.00 0.01 0.00 0.01 0.01 0.00 0.00 0.00 0.00
0.00 0.00 0.00 0.00 0.00 0.00 0.00 0.00 0.00 0.00 0.00 0.00 0.00 0.00 0.00 0.00 0.00 0.00 0.00 0.00 0.00 0.00 0.00 0.00 0.00 0.00 0.00 0.00 0.00 0.01 0.00 0.01 0.01 0.01 0.01 0.00 0.00 0.01 0.00 0.00 0.00 0.00 0.00 0.00
0.00 0.00 0.00 0.00 0.00 0.00 0.00 0.00 0.00 0.00 0.00 0.00 0.00 0.00 0.00 0.00 0.00 0.00 0.00 0.00 0.00 0.00 0.00 0.00 0.00 0.00 0.00 0.00 0.00 0.00 0.00 0.00 0.00 0.01 0.00 0.00 0.00 0.00 0.00 0.00 0.00 0.00 0.00 0.00
0.00 0.00 0.00 0.00 0.00 0.00 0.00 0.00 0.00 0.00 0.00 0.00 0.00 0.00 0.00 0.00 0.00 0.00 0.00 0.00 0.00 0.00 0.00 0.00 0.00 0.00 0.00 0.00 0.00 0.00 0.00 0.00 0.00 0.00 0.00 0.00 0.00 0.00 0.00 0.00 0.00 0.00 0.00 0.00
0.00 0.00 0.00 0.00 0.00 0.00 0.00 0.00 0.00 0.00 0.00 0.00 0.00 0.00 0.00 0.00 0.00 0.00 0.00 0.00 0.00 0.00 0.00 0.00 0.00 0.00 0.00 0.00 0.00 0.00 0.00 0.00 0.00 0.00 0.00 0.00 0.00 0.00 0.00 0.00 0.00 0.00 0.00 0.00
MSLP
1016.61 1016.65 1016.25 1015.94 1015.73 1015.42 1014.87 1014.08 1012.85 1011.39 1010.35 1009.28 1005.90 1004.97 1004.74 1003.80 1002.81 1002.63 1002.41 1002.68 1002.83 1002.56 1003.18 1003.23 1003.51 1004.14 1004.93 1005.56 1006.61 1007.83 1008.56 1009.53 1010.39 1011.35 1012.14 1013.38 1014.28 1015.32 1016.28 1017.02 1017.96 1018.74 1019.64 1020.47
1017.75 1017.20 1016.45 1016.25 1015.82 1015.51 1015.16 1014.45 1013.19 1011.47 1010.12 1009.09 1007.53 1004.84 1004.31 1004.04 1003.46 1003.09 1002.44 1001.94 1001.82 1002.29 1002.60 1002.87 1003.09 1003.57 1004.15 1004.89 1006.14 1007.24 1008.18 1009.03 1009.90 1010.83 1011.68 1012.58 1013.45 1014.86 1015.80 1016.76 1017.80 1018.62 1019.48 1020.37
1018.52 1017.39 1016.83 1016.29 1015.68 1015.20 1014.74 1014.36 1013.16 1012.15 1010.50 1009.47 1008.48 1005.61 1004.22 1003.47 1002.89 1002.60 1002.22 1001.63 1001.48 1001.38 1001.72 1002.24 1002.51 1003.00 1003.85 1004.45 1005.37 1006.45 1007.55 1008.65 1009.60 1010.47 1011.74 1012.93 1014.20 1015.50 1016.58 1017.25 1017.79 1018.23 1018.81 1019.88
1018.34 1017.06 1016.65 1015.74 1015.01 1014.64 1014.10 1013.66 1013.01 1012.26 1011.32 1009.68 1008.17 1004.95 1003.73 1002.70 1001.52 1001.23 1000.97 1001.21 1000.47 1000.82 1000.98 1001.32 1002.02 1002.68 1003.15 1003.97 1004.94 1005.99 1007.06 1008.05 1009.17 1009.97 1011.12 1011.94 1012.97 1014.36 1015.05 1015.52 1016.86 1018.07 1018.78 1019.67
1018.32 1017.35 1016.30 1015.25 1014.52 1014.20 1013.64 1013.34 1012.97 1012.30 1011.34 1010.46 1008.95 1007.39 1003.70 1002.18 1000.64 1000.37 1000.05 999.93 999.84 1000.02 1000.60 1000.87 1001.25 1001.93 1002.72 1003.61 1004.58 1005.45 1006.44 1007.52 1008.48 1009.54 1010.40 1011.57 1012.47 1013.48 1014.60 1015.86 1016.85 1017.92 1018.69 1019.30
1018.42 1016.99 1016.09 1015.06 1014.43 1014.04 1013.09 1012.53 1012.11 1010.82 1010.68 1009.38 1007.91 1007.07 1003.60 1002.20 1000.49 999.38 998.97 998.80 999.05 999.53 999.96 1000.27 1000.61 1001.50 1002.35 1003.03 1004.20 1005.00 1005.87 1006.90 1007.76 1008.84 1009.95 1010.90 1011.66 1013.02 1014.35 1015.52 1016.67 1017.63 1018.73 1019.60
1017.67 1016.66 1015.38 1014.58 1014.27 1013.32 1013.17 1012.76 1012.09 1010.96 1009.66 1007.36 1005.93 1005.50 1003.30 1001.13 1000.17 998.97 998.20 997.87 997.93 998.46 999.21 999.76 1000.35 1001.06 1001.80 1002.33 1003.35 1004.41 1005.31 1006.21 1007.09 1008.15 1009.32 1010.24 1011.54 1012.19 1013.23 1014.13 1015.47 1016.93 1018.30 1019.33
1019.90 1016.65 1015.83 1014.81 1015.10 1013.99 1012.90 1012.43 1012.16 1010.78 1008.63 1006.25 1005.28 1004.09 1001.51 1000.52 999.18 998.41 998.43 997.96 998.02 998.11 998.01 998.99 999.43 1000.11 1000.96 1001.74 1002.70 1003.76 1004.72 1005.64 1006.56 1007.62 1008.78 1009.81 1010.90 1012.01 1013.03 1013.87 1014.80 1015.34 1016.81 1018.07
1020.69 1018.02 1016.12 1014.91 1014.37 1014.56 1013.09 1012.53 1011.98 1010.82 1008.27 1006.81 1004.41 1002.09 1000.54 999.46 998.81 998.09 997.78 997.80 997.77 997.80 997.77 998.11 998.75 999.40 1000.22 1001.15 1001.79 1002.84 1004.27 1005.21 1006.09 1007.07 1008.39 1009.51 1010.57 1011.56 1012.54 1013.57 1014.61 1015.09 1016.38 1017.48
1021.38 1019.05 1016.14 1014.81 1014.04 1014.09 1014.01 1013.05 1012.13 1011.26 1009.59 1006.86 1003.92 1002.73 1002.83 1002.00 1001.24 999.65 997.75 997.53 997.36 997.14 997.41 997.72 998.25 998.92 999.57 1000.34 1001.25 1002.45 1003.65 1004.63 1005.72 1006.68 1007.74 1008.90 1010.08 1011.14 1012.07 1013.02 1014.27 1015.08 1015.79 1017.21
1021.25 1020.81 1016.99 1015.43 1014.91 1014.45 1013.80 1013.56 1013.32 1012.12 1010.76 1008.67 1005.93 1004.55 1005.42 1004.29 1002.22 1000.05 998.34 997.63 997.62 997.13 997.02 997.48 997.84 998.39 999.08 999.94 1000.86 1001.85 1003.12 1004.37 1005.50 1006.35 1007.49 1008.66 1009.76 1010.69 1011.67 1012.62 1013.52 1014.82 1015.63 1016.64
1020.96 1020.22 1018.24 1015.99 1014.81 1014.97 1015.05 1014.51 1013.76 1012.49 1010.76 1009.59 1008.18 1007.16 1006.39 1004.78 1002.61 1000.22 998.91 998.58 998.11 998.31 997.77 997.76 997.97 998.53 999.20 999.89 1000.55 1001.52 1002.74 1003.91 1005.04 1005.98 1007.19 1008.54 1009.62 1010.71 1011.40 1012.30 1013.57 1014.60 1015.32 1016.53
1020.31 1019.72 1018.53 1016.06 1015.41 1015.32 1015.32 1015.01 1013.56 1011.41 1011.47 1010.98 1009.76 1009.03 1007.87 1005.95 1003.67 1001.83 1000.04 999.56 999.19 998.76 998.61 998.72 998.91 998.92 999.27 999.75 1000.36 1001.22 1002.37 1003.60 1004.67 1005.69 1006.88 1008.22 1009.35 1010.49 1011.54 1012.15 1013.29 1014.55 1015.49 1016.71
1020.09 1019.80 1019.44 1018.68 1017.45 1016.90 1016.49 1016.00 1015.41 1014.20 1013.61 1013.12 1012.69 1011.81 1010.12 1007.81 1005.59 1002.98 1001.24 1000.95 1000.33 999.47 1000.33 1000.17 1000.36 1000.26 1000.18 999.88 1000.27 1001.04 1002.03 1003.04 1004.19 1005.37 1006.37 1007.70 1008.82 1009.78 1010.84 1012.18 1013.22 1014.12 1015.15 1016.45
1020.42 1019.87 1018.98 1017.91 1017.08 1016.81 1016.88 1017.43 1016.50 1015.81 1015.72 1015.16 1014.20 1012.88 1011.64 1009.74 1007.37 1005.49 1003.71 1002.80 1002.01 1001.45 1002.07 1001.90 1001.86 1001.90 1001.64 1001.20 1000.97 1001.17 1001.59 1002.66 1003.85 1005.07 1006.28 1007.32 1008.53 1009.67 1010.68 1011.97 1012.99 1014.02 1015.16 1015.99
1020.70 1020.00 1018.76 1017.49 1016.76 1016.51 1016.92 1017.63 1017.46 1016.91 1016.18 1015.31 1014.56 1013.23 1012.91 1011.26 1009.16 1007.10 1004.84 1005.07 1004.07 1004.46 1003.92 1003.82 1003.68 1003.39 1003.17 1002.90 1002.54 1002.17 1002.05 1002.28 1003.41 1004.73 1006.03 1007.31 1008.53 1009.57 1010.62 1011.61 1012.97 1014.10 1015.07 1015.99
1021.33 1020.55 1019.17 1017.60 1016.52 1016.30 1017.19 1018.15 1017.98 1017.94 1017.39 1017.15 1015.85 1016.37 1014.82 1012.51 1010.86 1008.70 1007.45 1006.93 1006.36 1005.79 1005.63 1005.51 1005.48 1005.03 1004.47 1003.85 1003.51 1002.96 1002.42 1002.63 1003.56 1004.75 1005.93 1007.16 1008.25 1009.37 1010.47 1011.41 1012.61 1013.89 1014.98 1016.02
1021.77 1020.59 1019.46 1018.17 1016.73 1017.17 1018.32 1018.89 1018.76 1018.15 1017.90 1017.47 1016.86 1015.89 1014.94 1013.44 1011.36 1010.16 1009.30 1008.78 1007.62 1007.45 1007.37 1006.74 1006.38 1005.81 1005.13 1004.64 1004.05 1003.45 1002.72 1002.93 1003.69 1004.79 1005.80 1006.95 1008.17 1009.19 1010.30 1011.44 1012.49 1013.62 1014.89 1015.97
1021.98 1021.48 1020.57 1019.35 1018.24 1017.70 1017.79 1018.24 1018.08 1018.67 1018.06 1018.15 1017.31 1015.53 1013.75 1012.20 1010.86 1009.91 1009.96 1009.50 1009.35 1008.82 1008.28 1007.69 1007.06 1006.47 1005.87 1005.27 1004.50 1003.64 1003.04 1003.15 1003.82 1004.77 1005.73 1006.79 1007.98 1008.95 1010.09 1011.44 1012.43 1013.64 1014.84 1016.09
1022.69 1022.29 1021.76 1020.61 1019.87 1020.02 1020.99 1019.77 1018.17 1017.33 1017.51 1017.56 1017.40 1016.33 1015.15 1013.49 1011.30 1012.10 1011.23 1010.75 1010.46 1010.25 1009.65 1008.75 1007.83 1007.09 1006.33 1005.62 1004.75 1003.77 1003.48 1003.59 1004.14 1004.80 1005.76 1006.76 1007.81 1008.85 1009.99 1011.13 1012.44 1013.43 1014.70 1015.81
1025.05 1024.24 1023.65 1022.41 1021.61 1021.63 1022.14 1020.45 1018.27 1018.64 1020.74 1019.34 1018.38 1017.53 1016.86 1016.12 1015.74 1014.13 1012.92 1012.05 1011.30 1010.72 1010.11 1009.31 1008.53 1008.08 1007.67 1006.61 1005.57 1004.59 1004.18 1004.39 1004.44 1005.16 1006.06 1007.03 1008.02 1008.92 1009.96 1011.41 1012.58 1013.60 1014.90 1016.33
1028.41 1027.95 1026.41 1024.66 1023.55 1023.12 1022.94 1021.61 1021.56 1022.99 1021.52 1020.16 1018.81 1017.65 1016.49 1015.63 1014.96 1014.38 1013.61 1012.51 1011.96 1011.38 1010.34 1009.60 1009.17 1008.91 1008.45 1007.71 1006.86 1006.22 1005.99 1005.75 1005.12 1005.63 1006.58 1007.49 1008.49 1009.48 1010.64 1011.74 1013.04 1014.23 1015.31 1016.64
1030.05 1030.05 1029.52 1027.84 1025.72 1024.82 1024.29 1024.00 1023.69 1023.03 1021.89 1020.59 1019.65 1018.48 1017.79 1016.90 1015.83 1014.89 1014.23 1013.57 1012.74 1012.05 1011.47 1010.93 1010.65 1010.18 1009.45 1008.74 1008.02 1007.58 1007.25 1006.50 1005.91 1006.33 1007.28 1008.15 1009.21 1010.23 1011.19 1012.09 1013.50 1015.03 1015.87 1016.71
1030.82 1030.65 1030.27 1028.94 1026.96 1026.05 1024.99 1024.51 1023.86 1023.12 1022.33 1021.26 1020.17 1019.30 1018.46 1017.59 1016.83 1016.04 1015.19 1014.48 1013.84 1013.28 1012.78 1012.30 1011.62 1011.04 1010.54 1009.78 1009.00 1008.93 1008.19 1007.70 1007.49 1007.85 1008.52 1009.34 1010.00 1011.05 1012.16 1013.21 1014.04 1014.65 1015.73 1016.77
1032.48 1031.74 1031.04 1029.58 1028.00 1026.44 1025.21 1025.20 1024.61 1023.64 1022.57 1021.27 1020.39 1019.71 1019.02 1018.33 1017.56 1016.90 1016.13 1015.47 1014.98 1014.39 1014.01 1013.51 1012.68 1012.12 1011.57 1011.05 1010.43 1009.82 1009.27 1009.00 1009.01 1009.43 1009.89 1010.44 1011.28 1012.08 1012.97 1014.05 1014.78 1015.39 1016.03 1016.40
1033.27 1032.91 1032.25 1030.57 1029.14 1028.83 1026.72 1025.30 1024.40 1023.56 1022.37 1021.48 1020.69 1019.70 1019.03 1018.53 1018.02 1017.50 1016.96 1016.63 1016.16 1015.64 1015.11 1014.22 1013.57 1013.00 1012.45 1011.92 1011.65 1011.28 1010.76 1010.41 1010.12 1010.59 1011.18 1011.36 1012.28 1013.15 1013.91 1014.68 1015.65 1016.48 1016.98 1017.63
Thickness
5321 5308 5298 5306 5311 5318 5316 5319 5329 5366 5399 5406 5451 5472 5486 5524 5549 5559 5576 5584 5591 5607 5613 5621 5629 5633 5636 5639 5638 5634 5637 5637 5636 5636 5638 5634 5632 5630 5628 5629 5628 5627 5625 5624
5293 5277 5292 5294 5298 5296 5293 5287 5303 5346 5386 5389 5408 5441 5476 5496 5509 5532 5556 5575 5587 5595 5598 5608 5619 5626 5631 5635 5632 5630 5631 5633 5634 5634 5635 5632 5631 5626 5625 5623 5622 5622 5620 5618
5259 5280 5283 5284 5281 5277 5278 5266 5288 5309 5353 5362 5373 5398 5440 5472 5498 5520 5538 5561 5573 5585 5596 5601 5610 5618 5622 5627 5629 5629 5629 5627 5628 5629 5625 5621 5617 5611 5610 5611 5615 5617 5618 5615
5261 5276 5276 5273 5276 5279 5268 5292 5298 5305 5313 5323 5375 5376 5427 5458 5484 5505 5530 5542 5570 5577 5589 5597 5602 5606 5616 5621 5624 5624 5623 5623 5622 5625 5622 5623 5623 5617 5619 5621 5615 5611 5612 5611
5259 5258 5262 5268 5274 5279 5273 5288 5286 5289 5286 5302 5325 5329 5389 5440 5473 5490 5516 5538 5558 5569 5575 5586 5594 5601 5607 5610 5613 5617 5618 5618 5618 5619 5621 5618 5619 5617 5612 5608 5606 5604 5603 5604
5254 5267 5264 5269 5279 5280 5291 5289 5290 5299 5288 5288 5323 5327 5363 5404 5455 5492 5513 5531 5545 5554 5563 5577 5588 5590 5593 5599 5602 5607 5611 5613 5616 5615 5615 5616 5618 5612 5606 5602 5598 5598 5594 5594
5261 5266 5270 5278 5267 5286 5281 5276 5247 5274 5272 5314 5341 5325 5361 5418 5453 5479 5506 5525 5541 5551 5556 5562 5571 5578 5583 5591 5597 5600 5605 5608 5612 5612 5611 5612 5609 5612 5609 5606 5602 5597 5590 5587
5229 5249 5265 5280 5262 5268 5275 5282 5265 5288 5298 5334 5355 5324 5373 5417 5451 5470 5485 5506 5517 5529 5550 5553 5566 5575 5580 5586 5591 5593 5599 5603 5607 5607 5607 5606 5605 5604 5603 5602 5601 5603 5596 5591
5229 5254 5277 5284 5287 5269 5284 5280 5289 5294 5317 5328 5368 5378 5395 5418 5439 5471 5482 5494 5506 5520 5539 5549 5560 5568 5576 5581 5589 5592 5591 5594 5601 5604 5600 5598 5598 5598 5598 5596 5594 5598 5592 5587
5240 5243 5284 5296 5293 5282 5275 5287 5284 5290 5305 5341 5390 5395 5380 5362 5375 5432 5474 5492 5502 5521 5530 5542 5548 5560 5571 5578 5582 5584 5586 5589 5593 5596 5595 5594 5592 5592 5593 5591 5587 5589 5589 5582
5246 5227 5278 5295 5277 5272 5284 5273 5280 5283 5292 5314 5373 5392 5345 5350 5375 5425 5465 5493 5503 5509 5522 5534 5547 5557 5565 5571 5575 5579 5579 5580 5581 5586 5586 5586 5586 5587 5585 5587 5585 5582 5581 5579
5249 5244 5261 5288 5295 5282 5280 5274 5275 5286 5309 5321 5332 5358 5345 5357 5391 5441 5461 5475 5490 5497 5507 5524 5539 5548 5554 5559 5566 5572 5572 5573 5573 5577 5577 5575 5575 5575 5578 5579 5577 5575 5575 5569
5262 5242 5256 5286 5295 5289 5278 5272 5278 5306 5310 5315 5331 5331 5336 5356 5391 5428 5456 5469 5480 5494 5500 5508 5519 5538 5548 5554 5561 5564 5564 5565 5564 5566 5566 5564 5566 5566 5567 5569 5570 5565 5563 5558
5278 5260 5260 5261 5268 5274 5269 5268 5272 5279 5283 5289 5292 5294 5312 5343 5370 5417 5448 5456 5469 5485 5487 5495 5500 5514 5531 5549 5556 5559 5562 5560 5559 5558 5559 5558 5559 5560 5561 5558 5558 5559 5557 5550
5271 5265 5281 5286 5287 5287 5269 5259 5271 5269 5265 5269 5279 5294 5304 5332 5367 5398 5422 5439 5454 5467 5470 5479 5488 5497 5510 5527 5541 5550 5557 5557 5554 5553 5551 5553 5551 5548 5550 5548 5548 5548 5548 5545
5273 5278 5287 5290 5304 5302 5284 5271 5267 5272 5273 5281 5292 5301 5310 5329 5359 5384 5414 5421 5437 5442 5456 5466 5476 5486 5495 5505 5518 5534 5545 5552 5551 5548 5547 5544 5541 5541 5542 5542 5539 5536 5536 5535
5261 5275 5285 5297 5317 5315 5298 5271 5268 5271 5275 5277 5289 5289 5308 5333 5353 5374 5396 5411 5423 5435 5444 5452 5459 5471 5481 5492 5503 5517 5535 5540 5541 5538 5537 5536 5534 5535 5535 5533 5533 5529 5527 5525
5268 5277 5295 5294 5316 5299 5284 5278 5274 5277 5282 5286 5294 5303 5313 5333 5357 5373 5387 5400 5416 5424 5430 5442 5451 5461 5473 5482 5493 5506 5524 5532 5532 5531 5530 5528 5526 5528 5527 5525 5524 5523 5519 5516
5278 5275 5273 5297 5308 5320 5314 5286 5288 5278 5292 5287 5295 5317 5337 5353 5375 5390 5392 5402 5406 5415 5425 5435 5445 5456 5465 5475 5486 5503 5519 5524 5527 5526 5526 5524 5522 5524 5521 5517 5516 5514 5511 5507
5283 5274 5276 5294 5307 5295 5261 5282 5301 5310 5314 5304 5303 5317 5331 5350 5373 5369 5383 5395 5401 5407 5417 5428 5439 5450 5459 5469 5482 5503 5517 5521 5523 5523 5522 5520 5519 5519 5517 5514 5510 5509 5505 5502
5247 5247 5261 5280 5293 5284 5266 5280 5310 5300 5281 5292 5303 5311 5321 5331 5337 5355 5374 5384 5395 5405 5413 5423 5432 5439 5445 5459 5474 5489 5509 5513 5515 5515 5514 5514 5512 5511 5510 5504 5503 5503 5497 5490
5211 5217 5246 5268 5277 5284 5267 5282 5279 5266 5280 5294 5306 5318 5330 5342 5351 5361 5372 5383 5391 5399 5410 5420 5426 5430 5436 5447 5460 5471 5478 5486 5504 5507 5503 5501 5501 5501 5499 5496 5493 5489 5485 5479
5208 5200 5211 5239 5266 5260 5261 5261 5268 5272 5280 5295 5302 5317 5324 5336 5348 5360 5366 5374 5384 5392 5400 5406 5411 5417 5426 5436 5447 5458 5464 5477 5490 5494 5492 5492 5489 5487 5487 5488 5479 5473 5473 5471
5201 5203 5206 5224 5248 5248 5257 5263 5270 5276 5282 5291 5306 5314 5324 5332 5341 5349 5359 5367 5374 5380 5386 5392 5401 5409 5417 5428 5440 5445 5456 5465 5473 5476 5477 5477 5479 5477 5474 5471 5471 5472 5468 5465
5178 5192 5201 5214 5236 5247 5263 5262 5264 5272 5282 5299 5307 5313 5318 5327 5336 5342 5350 5358 5362 5369 5374 5381 5391 5399 5408 5416 5425 5434 5443 5451 5456 5459 5464 5466 5465 5464 5460 5457 5458 5460 5459 5461
5167 5177 5181 5204 5224 5225 5244 5261 5267 5272 5289 5297 5303 5313 5321 5325 5331 5336 5341 5344 5349 5355 5364 5375 5384 5392 5400 5409 5415 5422 5430 5437 5445 5448 5451 5454 5452 5451 5451 5449 5445 5445 5445 5443